Temperature
18 19 19 19 20 19 18 18 18 19 18 19 19 18 19 19 19 19 20 20 20 20 20 20 20 19 19 19 18 18 18 18 18 18 18 17 17 17 17 16 16 16 16 16
18 19 19 19 19 19 19 19 18 19 19 18 18 18 18 19 18 18 19 19 20 20 20 20 20 20 19 19 19 18 18 18 18 18 17 17 17 17 16 16 16 16 16 16
16 18 18 18 19 19 19 19 19 19 19 18 18 17 17 18 18 18 19 19 20 19 20 20 20 20 19 19 19 18 18 18 18 18 17 17 17 17 17 16 16 16 16 16
15 17 17 18 18 19 19 19 18 18 18 17 16 16 17 18 18 18 19 19 19 19 20 20 20 19 19 19 18 18 18 18 18 17 17 17 17 17 17 16 16 16 16 16
14 15 16 18 18 17 18 18 17 17 16 16 16 16 16 17 17 18 18 19 19 19 19 19 19 19 19 18 18 18 18 18 18 17 17 17 17 17 16 16 16 16 15 15
14 16 16 17 17 17 17 17 16 16 16 16 16 16 16 16 16 17 18 18 19 19 19 19 19 18 18 18 18 17 17 17 17 17 17 17 16 16 16 15 15 15 15 15
14 15 15 16 16 17 17 17 16 16 16 16 15 15 15 15 16 17 17 18 18 18 18 18 18 18 18 17 17 17 16 16 16 16 16 16 16 15 15 15 15 14 14 14
13 14 15 15 15 15 15 15 15 15 16 15 15 14 14 15 15 16 16 17 17 17 17 17 17 17 17 16 16 16 16 15 15 15 15 15 15 15 15 14 14 14 13 13
13 14 14 14 14 14 15 14 15 15 15 14 14 14 14 14 15 15 16 16 16 16 16 16 16 16 16 15 15 15 15 15 15 14 14 14 14 14 14 13 13 13 13 13
13 13 13 14 14 14 15 14 15 14 14 14 13 13 13 13 14 14 15 15 15 15 15 14 14 14 14 14 14 14 14 14 14 14 14 13 13 13 13 12 12 12 12 12
13 13 13 14 14 14 14 14 14 14 14 13 13 13 13 13 13 13 13 14 14 14 14 13 13 13 13 13 13 13 13 13 13 13 13 13 12 12 12 12 12 12 12 11
13 12 12 12 13 13 13 13 13 13 13 13 13 13 13 12 12 13 13 13 13 13 13 13 13 13 13 13 13 13 13 13 12 12 12 12 12 12 12 12 12 11 11 11
12 12 12 12 12 13 13 13 13 13 13 12 12 12 12 12 12 12 12 12 12 12 12 12 12 12 12 12 12 12 12 12 12 12 11 11 11 11 11 11 11 11 11 11
12 12 12 12 12 12 12 12 12 12 12 12 12 12 12 12 12 12 12 12 12 12 12 12 12 12 12 12 12 12 11 11 11 11 11 11 11 11 11 11 11 11 10 10
12 12 12 12 12 12 12 12 12 11 11 12 12 12 12 12 12 12 11 11 12 11 11 11 11 11 11 11 11 11 11 11 11 10 10 10 10 10 10 10 10 10 10 10
12 12 12 12 11 11 12 12 11 11 11 11 12 12 12 11 11 11 11 11 11 11 11 11 11 11 11 11 11 10 10 10 10 10 10 10 10 10 10 10 10 10 10 10
12 11 11 11 11 11 11 12 12 11 11 11 11 11 11 11 11 11 11 11 11 11 10 10 10 10 10 10 10 10 10 10 10 9 9 9 9 9 9 9 9 9 9 9
12 12 12 12 12 12 11 11 11 11 11 11 11 11 11 11 11 11 10 10 10 10 10 10 10 10 10 10 10 9 9 9 9 9 9 9 9 9 8 8 8 8 8 8
12 12 12 12 12 12 12 11 11 11 11 11 11 11 11 11 11 10 10 10 10 10 9 9 9 9 9 9 9 9 9 9 9 8 8 8 8 8 8 8 7 7 7 7
12 12 12 12 12 12 11 11 11 11 11 11 11 11 11 10 10 10 10 10 9 9 9 9 9 9 8 8 8 8 8 8 8 8 7 7 7 7 7 7 7 6 6 6
11 11 11 11 11 11 11 11 11 11 11 11 10 10 10 10 9 9 9 9 9 9 8 8 8 8 8 8 7 7 7 7 7 7 6 6 6 6 6 6 6 5 5 5
11 11 11 11 11 11 11 11 11 11 10 10 10 10 9 9 9 9 9 8 8 8 8 8 7 7 7 7 7 6 6 6 6 6 5 5 5 5 5 5 5 5 4 4
11 11 11 11 11 11 10 10 10 10 10 9 9 9 9 9 8 8 8 8 7 7 7 7 7 6 6 6 6 6 5 5 5 5 5 4 4 4 4 4 4 4 4 4
10 10 10 10 10 10 10 10 10 9 9 9 9 8 8 8 8 7 7 7 7 7 6 6 6 6 5 5 5 5 4 4 4 4 4 4 3 3 3 3 3 3 3 3
10 10 10 10 10 10 9 9 9 9 8 8 8 8 7 7 7 7 6 6 6 6 5 5 5 5 5 4 4 4 4 3 3 3 3 3 3 2 2 2 2 2 2 2
10 10 9 9 9 9 9 8 8 8 8 7 7 7 6 6 6 6 5 5 5 5 5 4 4 4 4 3 3 3 3 2 2 2 2 2 2 2 2 2 2 2 2 1
9 9 9 8 8 8 8 7 7 7 7 6 6 6 5 5 5 5 5 4 4 4 4 3 3 3 3 2 2 2 2 2 2 1 1 1 1 1 1 1 1 1 1 1
Wind_Speed
6 5 4 5 6 7 8 9 9 9 9 10 7 6 4 3 3 5 6 7 8 8 7 7 7 6 7 7 7 8 9 9 9 8 8 7 7 7 7 7 8 8 8 8
3 5 4 5 7 9 9 6 7 6 8 6 3 1 1 3 5 5 6 7 8 7 7 8 8 8 7 7 7 8 8 8 7 6 7 7 7 6 6 6 6 7 8 8
4 4 1 6 8 9 6 7 8 10 9 2 1 0 0 2 4 4 5 6 7 7 7 7 7 7 7 6 6 7 7 7 7 7 7 7 7 6 7 7 6 6 7 7
2 1 6 8 3 4 6 6 6 5 3 3 3 2 3 3 4 4 4 4 4 5 5 5 5 5 5 5 6 6 6 6 6 7 7 6 6 7 6 5 6 6 7 7
3 4 6 5 2 1 2 4 3 4 3 4 6 5 5 5 5 4 4 4 4 4 4 5 5 5 6 6 5 5 5 5 5 6 7 7 7 7 6 6 6 6 5 6
3 4 6 5 3 2 2 4 2 3 5 6 5 3 2 3 5 6 6 6 6 6 7 6 4 6 8 6 5 4 3 4 4 5 6 6 6 5 5 5 5 5 5 5
4 4 6 3 5 2 4 5 3 2 4 4 3 4 6 5 6 7 8 8 8 8 8 5 5 7 8 6 4 3 3 3 4 4 4 3 3 3 3 4 4 3 3 3
3 3 5 4 3 2 4 2 1 1 4 7 9 10 9 8 8 9 9 10 9 10 9 7 7 9 9 6 4 5 6 6 5 3 2 2 2 1 1 2 3 3 2 2
4 5 3 2 4 4 2 1 0 3 6 11 12 10 9 9 9 10 10 10 9 10 11 9 8 9 9 5 5 7 7 6 6 5 4 4 3 2 2 1 1 1 1 1
2 3 3 4 3 3 2 2 3 6 9 10 12 11 11 10 10 10 10 9 9 11 11 10 9 9 7 6 7 8 8 6 6 6 5 5 3 3 2 1 1 1 1 1
2 3 4 4 4 3 5 6 8 10 10 11 13 13 12 11 11 10 10 9 10 11 11 9 9 9 8 7 8 8 7 6 6 5 4 4 3 3 2 1 1 2 2 2
2 2 1 2 3 4 7 8 10 12 13 12 13 13 13 11 10 10 9 9 10 11 10 9 9 8 7 6 7 8 7 6 5 4 3 3 3 4 6 3 3 2 2 2
1 1 3 3 5 6 9 10 12 13 14 14 12 13 13 11 9 9 9 9 10 9 8 8 9 9 8 7 8 8 6 5 4 4 3 3 2 3 3 4 5 4 3 2
2 3 4 4 5 8 11 12 13 14 14 13 12 12 12 11 10 10 8 8 8 9 9 9 10 9 7 7 8 8 6 6 5 3 3 2 2 2 1 1 2 3 3 2
5 5 6 7 9 9 10 12 14 13 13 12 11 11 11 11 10 8 7 7 9 10 9 9 9 8 6 6 7 6 5 4 4 3 3 3 2 2 2 2 2 3 3 3
7 8 9 10 11 11 12 13 13 11 11 11 11 10 9 10 9 8 8 8 9 8 7 7 7 5 5 5 6 5 4 6 5 3 3 3 3 3 2 2 3 3 4 4
7 7 8 10 10 11 11 11 10 10 9 10 9 9 9 9 9 9 8 7 8 7 6 6 5 5 6 6 5 4 4 4 6 4 3 3 3 3 2 2 3 4 4 5
6 7 8 10 10 11 10 10 9 9 8 8 9 9 9 9 8 6 6 7 8 8 7 5 5 5 6 6 5 4 3 3 3 3 3 2 2 2 2 2 3 4 5 5
10 11 11 11 9 10 10 9 8 8 7 8 9 8 7 7 6 6 6 7 7 6 5 5 6 6 6 6 5 3 3 3 3 3 3 3 3 3 3 3 4 4 5 5
11 10 11 11 10 10 10 9 9 8 7 8 9 8 8 6 6 6 6 6 3 1 2 3 4 5 5 5 5 4 4 4 3 3 3 3 3 3 4 4 4 4 5 5
11 11 11 11 10 10 9 9 9 9 7 8 8 7 6 5 5 5 5 4 4 4 3 5 4 4 4 4 5 4 4 4 4 4 4 4 4 4 4 5 5 5 5 5
9 10 10 9 10 9 7 7 8 8 8 7 7 7 7 6 5 5 4 2 2 4 3 3 4 5 5 5 4 4 4 4 4 3 3 4 4 4 5 5 5 6 6 6
8 8 8 8 9 8 8 7 7 7 7 6 6 6 5 4 3 3 2 3 3 5 4 4 5 7 7 5 4 4 5 5 4 4 4 4 4 5 5 6 5 6 6 6
7 7 7 7 8 9 8 7 7 6 7 6 5 4 4 4 3 3 2 3 6 6 5 5 7 8 7 4 4 4 4 4 4 4 4 4 4 5 5 5 5 6 6 7
8 8 8 8 8 7 6 6 7 7 8 7 7 7 5 4 3 3 4 5 6 6 5 6 8 7 5 4 4 4 4 4 4 4 4 4 5 5 5 5 6 6 6 6
7 7 6 6 5 5 4 5 5 5 5 5 5 5 5 4 5 4 4 5 7 6 5 4 5 5 4 4 4 4 4 4 4 4 4 4 5 5 6 6 7 6 6 6
8 6 6 6 5 5 5 5 5 4 4 4 3 4 4 4 5 5 5 5 5 5 5 4 4 4 4 4 4 4 4 4 4 4 4 5 5 5 6 7 6 6 6 7
Wind_Direction
233 244 220 225 231 196 196 193 195 226 228 249 249 242 234 204 170 156 166 172 176 179 178 172 170 174 179 182 177 173 173 184 195 190 186 185 187 191 189 190 198 198 199 202
265 258 231 247 250 225 216 209 217 233 251 244 252 217 153 162 159 169 180 182 177 174 173 177 180 182 182 183 181 172 178 191 189 177 178 185 188 187 186 190 191 191 198 200
248 270 301 256 235 219 211 207 191 215 232 203 203 43 180 164 156 170 176 173 174 176 177 182 184 180 178 179 166 169 182 186 180 178 185 191 187 180 187 191 188 191 198 200
215 175 227 244 247 203 208 228 211 214 214 175 163 95 53 95 135 138 139 148 158 163 166 167 165 166 161 152 152 165 175 182 181 182 188 184 181 189 193 187 189 199 204 206
170 213 263 285 294 141 195 252 210 186 172 142 128 89 51 56 92 114 115 116 116 122 127 128 135 145 136 133 141 150 163 173 177 177 180 181 191 196 193 189 197 202 206 206
179 200 233 251 293 308 130 261 264 171 172 160 130 117 119 65 81 87 82 85 89 90 89 96 107 121 123 127 129 145 164 166 158 160 168 182 193 195 190 191 205 209 215 214
204 229 260 288 307 327 183 239 292 198 180 157 134 142 128 105 92 90 84 83 85 84 83 83 100 112 114 113 123 137 124 115 118 134 153 171 180 184 184 186 189 198 213 222
183 218 256 335 344 226 240 286 310 107 127 118 113 112 110 103 94 86 81 78 85 87 79 70 85 100 98 95 95 93 94 92 87 82 90 110 107 118 148 169 184 191 198 223
200 226 270 308 284 289 276 233 107 111 118 122 119 114 106 96 87 81 79 77 80 87 80 67 70 90 97 89 84 87 86 82 77 70 60 59 73 75 73 115 157 179 183 207
264 283 310 330 330 347 30 79 100 111 117 120 118 111 104 97 88 80 74 74 79 82 79 68 61 70 78 75 78 82 79 72 70 72 64 55 58 71 87 98 124 144 162 198
258 290 336 358 12 44 70 87 97 97 103 110 111 106 102 96 90 85 80 76 77 82 80 72 65 62 61 71 83 83 78 71 65 61 62 56 51 52 71 81 175 172 195 206
227 262 228 318 1 69 91 94 100 102 99 97 102 103 99 93 87 84 81 79 79 77 77 72 69 63 53 61 79 83 73 63 62 60 56 58 59 48 45 52 51 79 128 156
182 71 101 74 53 74 95 95 96 98 101 99 95 101 100 95 88 85 82 81 81 78 74 70 67 58 45 54 71 75 75 67 62 59 57 50 49 56 38 25 34 46 55 66
84 92 81 68 74 80 92 96 94 91 92 97 100 99 98 94 90 86 83 81 82 78 71 67 64 51 37 53 66 67 64 59 59 53 48 47 47 45 47 25 351 341 342 331
61 91 108 100 91 89 92 97 96 93 94 92 93 96 99 99 93 85 79 80 78 72 65 64 60 42 31 51 61 61 57 50 51 50 48 48 44 40 29 8 334 318 326 329
90 90 98 97 95 96 97 98 99 98 97 96 94 93 94 95 89 80 69 72 77 71 60 60 53 30 31 50 56 52 48 47 52 49 43 40 36 28 13 359 342 328 320 316
109 107 107 102 98 96 94 98 103 104 102 101 100 99 95 89 81 73 67 66 74 69 57 55 42 28 39 50 56 50 40 33 34 36 27 20 15 6 352 342 331 321 312 306
100 105 107 109 108 101 95 96 100 101 103 106 102 93 88 88 89 82 72 70 69 56 40 35 40 43 42 43 50 48 43 31 25 21 13 10 2 352 342 332 325 321 318 323
93 95 95 95 99 102 100 98 97 95 95 97 93 88 85 85 87 84 77 71 66 53 15 12 36 45 36 28 37 42 38 28 19 9 0 350 348 345 339 335 331 328 326 326
89 94 95 93 91 95 97 97 95 90 88 96 95 90 82 76 78 81 78 68 47 2 345 25 40 38 27 19 30 35 31 23 16 8 5 1 354 350 347 344 341 339 335 330
91 92 93 92 87 85 91 97 96 91 85 90 96 97 92 79 76 80 77 56 3 11 33 39 40 29 24 25 32 35 30 23 17 11 6 358 351 348 346 344 341 335 331 328
88 89 91 93 91 83 77 83 90 90 85 83 86 90 88 76 69 65 60 51 0 20 36 33 30 28 26 31 32 30 26 25 22 18 12 3 355 347 342 339 334 329 326 325
89 90 92 95 97 92 79 74 80 87 89 90 93 95 95 91 83 84 47 6 23 37 41 35 28 30 34 36 32 29 25 23 19 15 8 1 352 344 339 336 333 330 328 329
86 85 86 89 92 89 81 69 70 75 78 76 72 80 93 88 60 46 57 40 43 49 49 36 34 33 32 33 33 32 27 19 10 1 356 350 345 343 339 335 333 333 332 331
90 88 89 91 91 93 94 88 79 72 74 67 57 52 55 66 74 57 52 48 43 45 42 34 36 35 33 30 28 24 18 10 0 352 351 349 344 340 337 334 333 333 333 333
86 85 82 83 92 96 92 87 82 75 77 72 56 46 48 52 60 59 55 49 44 42 38 30 26 29 29 25 19 14 9 3 359 356 352 348 344 342 338 339 339 338 335 334
82 81 80 73 63 69 81 84 84 75 74 84 72 46 47 52 56 53 50 46 41 37 32 27 23 19 16 14 10 6 6 5 1 357 353 350 348 344 341 339 337 335 335 333
Height
1458 1454 1454 1454 1453 1456 1460 1461 1467 1461 1457 1447 1443 1441 1440 1442 1443 1445 1447 1450 1453 1456 1460 1464 1468 1471 1475 1478 1482 1485 1489 1492 1495 1498 1501 1505 1508 1511 1514 1517 1519 1522 1524 1526
1457 1452 1451 1452 1448 1449 1451 1452 1454 1452 1450 1440 1439 1439 1440 1440 1442 1443 1445 1447 1451 1454 1458 1462 1465 1469 1473 1476 1480 1484 1487 1490 1493 1496 1499 1502 1505 1508 1510 1513 1515 1517 1519 1521
1464 1454 1452 1457 1446 1444 1444 1442 1444 1448 1442 1438 1439 1438 1439 1440 1441 1442 1443 1446 1449 1452 1456 1459 1463 1467 1471 1474 1478 1482 1485 1488 1491 1494 1497 1500 1502 1504 1507 1509 1511 1513 1515 1516
1466 1461 1467 1448 1435 1435 1437 1437 1436 1436 1435 1436 1437 1438 1439 1439 1440 1441 1443 1446 1449 1451 1455 1458 1461 1465 1468 1473 1476 1479 1483 1486 1489 1492 1494 1497 1499 1501 1503 1505 1507 1509 1510 1511
1468 1466 1457 1443 1436 1436 1438 1438 1433 1434 1435 1436 1436 1437 1440 1440 1440 1442 1444 1446 1448 1451 1454 1457 1460 1464 1467 1470 1473 1476 1479 1482 1485 1488 1490 1493 1495 1497 1499 1501 1502 1504 1505 1506
1465 1463 1461 1445 1436 1434 1437 1440 1433 1432 1433 1434 1435 1441 1443 1442 1442 1443 1444 1446 1449 1451 1454 1457 1460 1462 1465 1468 1471 1473 1476 1479 1482 1484 1487 1489 1491 1493 1495 1496 1498 1499 1501 1502
1462 1460 1451 1440 1436 1435 1445 1440 1432 1431 1432 1433 1435 1438 1441 1443 1444 1445 1446 1448 1450 1452 1454 1457 1460 1462 1465 1467 1470 1472 1475 1478 1480 1482 1483 1485 1487 1488 1490 1491 1492 1494 1495 1496
1460 1460 1454 1439 1437 1439 1437 1432 1431 1431 1432 1433 1435 1438 1441 1443 1444 1446 1447 1449 1451 1453 1455 1458 1460 1462 1464 1467 1469 1472 1474 1476 1478 1480 1481 1482 1484 1485 1486 1488 1488 1489 1490 1491
1453 1451 1442 1439 1438 1435 1433 1432 1431 1431 1433 1435 1437 1440 1443 1444 1446 1448 1449 1452 1454 1455 1457 1460 1462 1464 1465 1468 1470 1472 1474 1475 1477 1478 1480 1481 1482 1483 1484 1484 1485 1486 1487 1487
1447 1443 1440 1438 1436 1435 1433 1432 1432 1433 1435 1438 1440 1443 1445 1447 1449 1451 1454 1456 1458 1459 1461 1463 1465 1467 1468 1470 1472 1474 1475 1476 1478 1479 1480 1480 1481 1482 1482 1483 1483 1484 1484 1485
1446 1442 1440 1438 1437 1436 1435 1435 1435 1437 1439 1441 1443 1446 1449 1451 1453 1456 1458 1460 1462 1463 1465 1467 1470 1471 1472 1474 1475 1476 1476 1477 1478 1480 1481 1481 1482 1482 1482 1483 1483 1483 1483 1484
1445 1442 1442 1441 1439 1438 1437 1438 1439 1440 1442 1445 1447 1450 1453 1456 1459 1462 1464 1466 1467 1468 1470 1472 1474 1475 1476 1477 1478 1478 1479 1479 1480 1481 1482 1482 1482 1482 1482 1483 1483 1482 1482 1482
1442 1442 1442 1442 1441 1440 1440 1442 1443 1444 1446 1449 1453 1455 1458 1461 1465 1468 1470 1471 1472 1474 1475 1477 1478 1478 1480 1480 1481 1481 1482 1482 1483 1483 1483 1483 1483 1483 1483 1483 1483 1482 1482 1481
1442 1442 1443 1444 1444 1444 1445 1446 1448 1450 1453 1455 1459 1461 1464 1467 1470 1473 1475 1476 1477 1478 1480 1481 1481 1482 1483 1484 1484 1484 1484 1484 1484 1484 1484 1484 1483 1483 1483 1482 1482 1481 1481 1480
1444 1444 1445 1446 1447 1449 1450 1451 1453 1457 1460 1462 1465 1467 1470 1473 1475 1478 1479 1481 1482 1483 1484 1485 1485 1486 1487 1487 1487 1486 1486 1486 1486 1486 1485 1484 1484 1484 1483 1482 1481 1480 1479 1478
1447 1447 1449 1450 1451 1453 1455 1457 1459 1463 1466 1468 1471 1474 1476 1478 1480 1482 1483 1485 1485 1486 1487 1488 1488 1489 1490 1490 1489 1488 1488 1488 1487 1486 1485 1484 1484 1483 1482 1481 1480 1478 1477 1476
1449 1451 1452 1454 1456 1458 1461 1463 1465 1468 1471 1474 1476 1478 1480 1482 1483 1485 1487 1488 1489 1490 1490 1491 1491 1492 1491 1491 1490 1489 1489 1488 1487 1486 1485 1484 1483 1482 1481 1479 1478 1476 1475 1474
1453 1454 1456 1458 1461 1463 1466 1469 1472 1474 1476 1478 1480 1482 1484 1485 1486 1488 1489 1490 1491 1492 1493 1493 1493 1493 1492 1491 1490 1489 1488 1487 1486 1485 1484 1483 1482 1480 1479 1477 1475 1474 1472 1470
1457 1459 1461 1464 1466 1468 1471 1474 1476 1478 1480 1482 1483 1485 1487 1489 1490 1491 1492 1493 1493 1494 1494 1494 1493 1493 1492 1491 1490 1488 1487 1486 1485 1484 1482 1481 1480 1478 1476 1475 1473 1470 1468 1466
1462 1464 1467 1469 1471 1473 1476 1478 1480 1482 1484 1486 1487 1489 1490 1491 1492 1493 1494 1494 1494 1494 1494 1494 1493 1492 1491 1490 1488 1487 1486 1484 1483 1481 1480 1479 1477 1475 1474 1472 1469 1467 1465 1463
1467 1469 1471 1473 1475 1478 1480 1482 1484 1485 1487 1489 1490 1491 1492 1493 1494 1495 1495 1495 1495 1495 1494 1493 1492 1491 1489 1488 1487 1485 1484 1482 1481 1479 1477 1476 1474 1473 1471 1469 1467 1464 1462 1459
1472 1474 1476 1478 1480 1482 1484 1486 1487 1489 1490 1491 1492 1493 1494 1494 1495 1495 1495 1495 1495 1494 1493 1492 1491 1489 1488 1486 1485 1483 1481 1480 1478 1477 1475 1474 1472 1470 1468 1466 1463 1461 1458 1456
1476 1478 1480 1482 1484 1485 1487 1489 1490 1491 1492 1493 1494 1494 1495 1495 1495 1495 1495 1495 1494 1493 1492 1490 1489 1488 1486 1485 1483 1481 1479 1478 1476 1475 1473 1471 1469 1467 1465 1462 1460 1457 1455 1452
1480 1482 1484 1485 1487 1488 1490 1491 1493 1493 1494 1495 1495 1495 1495 1495 1495 1495 1494 1494 1493 1492 1490 1489 1487 1486 1485 1483 1481 1479 1478 1476 1474 1472 1471 1469 1466 1464 1462 1459 1457 1454 1451 1448
1483 1485 1487 1488 1489 1491 1492 1493 1494 1495 1495 1495 1495 1495 1495 1495 1495 1494 1493 1493 1491 1490 1489 1487 1486 1484 1483 1481 1479 1477 1475 1474 1472 1470 1468 1465 1463 1461 1458 1456 1453 1450 1448 1445
1486 1488 1489 1491 1492 1493 1494 1494 1495 1495 1495 1495 1495 1496 1495 1495 1494 1494 1493 1491 1490 1489 1487 1486 1484 1483 1481 1479 1477 1475 1474 1472 1469 1467 1465 1463 1460 1458 1456 1453 1450 1447 1444 1441
1489 1490 1492 1493 1494 1495 1495 1495 1496 1496 1496 1496 1495 1495 1495 1494 1494 1493 1492 1490 1489 1487 1486 1485 1483 1481 1479 1478 1476 1474 1472 1470 1467 1465 1463 1461 1458 1456 1453 1450 1448 1445 1442 1439